Back to Previous

Regional Weather Roundup

000
ASUS44 KLZK 231305
RWRLZK

WEATHER ROUNDUP FOR ARKANSAS
NATIONAL WEATHER SERVICE LITTLE ROCK AR
800 AM CDT THU OCT 23 2014

NOTE: "FAIR" INDICATES FEW OR NO CLOUDS BELOW 12,000 FEET WITH NO
SIGNIFICANT WEATHER AND/OR OBSTRUCTIONS TO VISIBILITY.

ARZ001-003-010-029-231400-
NORTHWEST ARKANSAS
  
CITY           SKY/WX    TMP DP  RH WIND       PRES   REMARKS
FAYETTEVILLE   CLOUDY    52  50  93 E3        30.17S                  
FORT SMITH     CLOUDY    54  48  80 E9        30.17S                  
HARRISON       CLOUDY    48  47  96 SE7       30.18F                  
BENTONVILLE    CLOUDY    54  46  76 CALM      30.17R                  
ROGERS         CLOUDY    54  48  80 SE6       30.18S                  
SILOAM SPGS    CLOUDY    55  46  71 CALM      30.18R                  
HIGHFILL       CLOUDY    55  51  86 CALM      30.17R                  
SPRINGDALE     CLOUDY    54  46  76 SE8       30.19R                  
$$

ARZ004-005-016-231400-
NORTH CENTRAL ARKANSAS
  
CITY           SKY/WX    TMP DP  RH WIND       PRES   REMARKS
BATESVILLE     CLOUDY    43  41  93 CALM      30.21F                  
FLIPPIN        CLOUDY    45  39  81 CALM      30.21R                  
MTN HOME       CLOUDY    47  44  90 CALM      30.20R                  
$$

ARZ040-041-231400-
WEST CENTRAL ARKANSAS
  
CITY           SKY/WX    TMP DP  RH WIND       PRES   REMARKS
MENA           CLOUDY    54  52  94 CALM      30.18S                  
MOUNT IDA      CLOUDY    50  49  96 CALM      30.17R                  
$$

ARZ009-017-025-026-028-231400-
NORTHEAST ARKANSAS
  
CITY           SKY/WX    TMP DP  RH WIND       PRES   REMARKS
CORNING        FAIR      45  43  93 CALM      30.23R                  
JONESBORO      PTCLDY    45  44  97 CALM      30.22R                  
NEWPORT        MOCLDY    44  44 100 CALM      30.23S                  
WALNUT RIDGE   CLOUDY    45  39  81 CALM      30.22R                  
BLYTHEVILLE    PTCLDY    42  41  96 N3        30.23R                  
$$

ARZ022-023-033-042-044-231400-
CENTRAL ARKANSAS
  
CITY           SKY/WX    TMP DP  RH WIND       PRES   REMARKS
LITTLE ROCK    CLOUDY    49  44  83 NE6       30.19F                  
N LITTLE ROCK    N/A     49  46  88 NE5       30.19F                  
JACKSONVILLE   CLOUDY    46  44  91 CALM      30.20R                  
SEARCY         CLOUDY    46  44  93 CALM      30.22R                  
HOT SPRINGS    CLOUDY    50  47  89 CALM      30.19S                  
RUSSELLVILLE   CLOUDY    50  47  89 SW5       30.20R                  
$$

ARZ036-231400-
EAST ARKANSAS
  
CITY           SKY/WX    TMP DP  RH WIND       PRES   REMARKS
WEST MEMPHIS   CLEAR     43  43 100 CALM      30.20R                  
$$

ARZ050-053-066-070-073-231400-
SOUTHWEST ARKANSAS
  
CITY           SKY/WX    TMP DP  RH WIND       PRES   REMARKS
ARKADELPHIA    FAIR      51  48  89 CALM      30.20R                  
CAMDEN         CLOUDY    48  46  93 NE3       30.19R FOG              
TEXARKANA      CLOUDY    52  50  93 NE5       30.17S                  
EL DORADO      CLOUDY    49  46  90 N5        30.17R                  
DE QUEEN       CLOUDY    53  50  89 E5        30.16S                  
$$

ARZ056-057-069-231400-
SOUTHEAST ARKANSAS
  
CITY           SKY/WX    TMP DP  RH WIND       PRES   REMARKS
PINE BLUFF     CLOUDY    48  45  89 CALM      30.18F                  
STUTTGART      MOCLDY    48  43  81 E9        30.18F                  
MONTICELLO     CLOUDY    49  45  86 E3        30.17S                  

$$




USA.gov is the U.S. government's official web portal to all federal, state and local government web resources and services.